GW5706 Weather Reports


Display with metric or nautical units.
time (UTC)temp
F
wind
direction
speed
MPH
gust
MPH
rain 1hr
in
rain 24hr
in
rain mn
in
humidity
%
barometer
mb
20260504185024 70 79 4.0 11.0 0.00 0.00 0.00 47 1015.5
20260504184021 73 43 1.0 10.0 0.00 0.00 0.00 45 1015.6
20260504183022 72 202 2.0 8.0 0.00 0.00 0.00 45 1015.6
20260504182022 72 270 1.0 7.0 0.00 0.00 0.00 46 1015.8
20260504181021 71 109 3.0 8.0 0.00 0.00 0.00 49 1015.9
20260504180022 69 253 2.0 7.0 0.00 0.00 0.00 51 1016.1
20260504175021 68 265 2.0 7.0 0.00 0.00 0.00 53 1016.3
20260504174022 68 255 1.0 8.0 0.00 0.00 0.00 56 1016.3
20260504173022 67 324 2.0 7.0 0.00 0.00 0.00 51 1016.3
20260504172021 67 81 2.0 6.0 0.00 0.00 0.00 49 1016.4
20260504171022 68 101 2.0 7.0 0.00 0.00 0.00 49 1016.5
20260504151026 65 305 4.0 12.0 0.00 0.00 0.00 43 1017.6
20260504141022 62 84 6.0 10.0 0.00 0.00 0.00 47 1017.3
20260504081022 56 280 2.0 7.0 0.00 0.00 0.00 41 1018.0
20260504050023 56 73 2.0 7.0 0.00 0.00 0.00 40 1018.3
20260504045022 55 82 2.0 11.0 0.00 0.00 0.00 40 1018.2
20260504044022 55 58 2.0 5.0 0.00 0.00 0.00 41 1018.2
20260504043021 55 91 2.0 5.0 0.00 0.00 0.00 41 1018.2
20260504042026 55 102 2.0 6.0 0.00 0.00 0.00 41 1018.1
20260504041021 54 89 3.0 7.0 0.00 0.00 0.00 42 1018.1
20260504040022 54 105 4.0 7.0 0.00 0.00 0.00 43 1018.1
20260504035021 56 106 2.0 5.0 0.00 0.00 0.00 38 1018.0
20260504034021 56 272 1.0 7.0 0.00 0.00 0.00 38 1018.0
20260504033022 56 288 1.0 7.0 0.00 0.00 0.00 37 1018.0
20260504032021 56 218 3.0 7.0 0.00 0.00 0.00 37 1018.0
20260504031022 56 290 3.0 6.0 0.00 0.00 0.00 37 1018.0
20260504030021 56 270 2.0 5.0 0.00 0.00 0.00 37 1018.0
20260504025022 56 168 2.0 4.0 0.00 0.00 0.00 38 1018.0
20260504024021 56 317 1.0 5.0 0.00 0.00 0.00 37 1018.1
20260504023022 56 99 1.0 6.0 0.00 0.00 0.00 38 1018.0
20260504022022 56 70 3.0 7.0 0.00 0.00 0.00 37 1017.9
20260504021021 55 147 1.0 4.0 0.00 0.00 0.00 39 1018.0
20260504020022 55 53 1.0 7.0 0.00 0.00 0.00 40 1017.7
20260504015021 55 99 2.0 5.0 0.00 0.00 0.00 41 1017.8
20260504014022 55 86 3.0 7.0 0.00 0.00 0.00 41 1017.6
20260504013022 55 73 3.0 7.0 0.00 0.00 0.00 42 1017.5
20260504012021 55 78 4.0 7.0 0.00 0.00 0.00 42 1017.4
20260504011022 55 70 3.0 4.0 0.00 0.00 0.00 41 1017.4
20260504010021 55 55 3.0 5.0 0.00 0.00 0.00 41 1017.4
20260504005022 55 95 3.0 4.0 0.00 0.00 0.00 42 1017.3
20260504004021 55 71 3.0 6.0 0.00 0.00 0.00 42 1017.3
20260504003021 55 81 3.0 4.0 0.00 0.00 0.00 42 1017.3
20260504002022 56 52 2.0 6.0 0.00 0.00 0.00 41 1017.3
20260504001021 56 67 5.0 7.0 0.00 0.00 0.00 41 1017.3
20260504000021 56 84 5.0 7.0 0.00 0.00 0.00 41 1017.2
20260503235022 56 76 3.0 7.0 0.00 0.00 0.00 42 1017.2
20260503234021 56 79 3.0 6.0 0.00 0.00 0.00 42 1017.1
20260503233022 56 88 4.0 7.0 0.00 0.00 0.00 41 1017.1
20260503232021 56 96 2.0 5.0 0.00 0.00 0.00 42 1017.0
20260503231022 58 71 3.0 7.0 0.00 0.00 0.00 40 1017.0
20260503230023 60 113 1.0 3.0 0.00 0.00 0.00 36 1017.0
20260503225022 60 102 2.0 3.0 0.00 0.00 0.00 37 1017.0
20260503224021 63 88 2.0 4.0 0.00 0.00 0.00 34 1017.0
20260503223022 63 148 2.0 5.0 0.00 0.00 0.00 36 1017.0
20260503222021 64 244 2.0 7.0 0.00 0.00 0.00 39 1017.0
20260503221022 64 108 1.0 6.0 0.00 0.00 0.00 36 1017.1
20260503220022 65 180 0.0 4.0 0.00 0.00 0.00 37 1017.1
20260503215021 63 278 2.0 5.0 0.00 0.00 0.00 37 1017.1
20260503214022 63 334 3.0 6.0 0.00 0.00 0.00 31 1017.1
20260503213023 62 153 4.0 10.0 0.00 0.00 0.00 36 1017.1
20260503212022 63 255 3.0 4.0 0.00 0.00 0.00 34 1017.2
20260503211021 61 254 5.0 7.0 0.00 0.00 0.00 34 1017.1
20260503210024 61 289 3.0 5.0 0.00 0.00 0.00 35 1017.2
20260503205023 61 241 1.0 6.0 0.00 0.00 0.00 37 1017.3
20260503204023 60 179 1.0 10.0 0.00 0.00 0.00 34 1017.3
20260503203022 62 96 2.0 7.0 0.00 0.00 0.00 37 1017.5
20260503202023 60 297 2.0 9.0 0.00 0.00 0.00 37 1017.6
20260503201022 60 309 3.0 6.0 0.00 0.00 0.00 38 1017.7
20260503200022 60 328 3.0 7.0 0.00 0.00 0.00 35 1017.8
20260503195024 60 264 3.0 7.0 0.00 0.00 0.00 39 1017.9
20260503194022 59 314 4.0 8.0 0.00 0.00 0.00 37 1018.0
20260503193022 58 258 5.0 8.0 0.00 0.00 0.00 37 1018.2
20260503192022 59 243 2.0 6.0 0.00 0.00 0.00 37 1018.4
20260503191023 59 275 6.0 10.0 0.00 0.00 0.00 41 1018.6
20260503190022 58 287 6.0 10.0 0.00 0.00 0.00 38 1018.7